Location: Newark
(31.5350°N, 35.0986°E)
Time: 04:24:42
(UTC+00:00)

Vanguard 2 Rocket - Visible Passes

Search period start: 19 September 2019 00:00
Search period end: 29 September 2019 00:00
Orbit: 554 x 3327 km, 32.9° (Epoch: 17 September)

Date Brightness Start Highest point End Pass type
(mag) Time Alt. Az. Time Alt. Az. Time Alt. Az.
19 Sep 5.8 17:09:23 10° WSW 17:14:05 89° S 17:14:50 58° E visible
20 Sep 6.3 16:09:13 10° WSW 16:14:52 69° SSE 16:18:45 11° E visible
20 Sep 8.6 18:23:34 10° W 18:24:33 16° W 18:24:33 16° W visible
21 Sep 5.9 17:23:46 10° W 17:28:26 75° N 17:28:26 75° N visible
22 Sep 6.2 16:23:28 10° W 16:29:12 87° NNW 16:32:18 18° E visible
22 Sep 9.1 18:37:56 10° W 18:38:06 11° W 18:38:06 11° W visible
23 Sep 6.6 17:38:09 10° W 17:41:58 53° WNW 17:41:58 53° WNW visible
24 Sep 6.3 16:37:51 10° W 16:43:34 76° N 16:45:48 27° ENE visible
25 Sep 7.5 17:52:31 10° W 17:55:28 35° WNW 17:55:28 35° WNW visible
26 Sep 6.2 16:52:15 10° W 16:57:57 77° N 16:59:18 43° E visible
27 Sep 6.7 15:51:22 10° W 15:58:33 77° N 16:03:03 10° E visible
27 Sep 8.2 18:06:52 10° W 18:08:58 24° W 18:08:58 24° W visible
28 Sep 6.0 17:06:35 10° W 17:12:18 89° S 17:12:49 70° ESE visible
